Satellite-Ground Cal/Val Region Overpasses Predictions

Prediction of Satellite NPP Overpassing Cal/Val Region: PacNW

Region Location: (Latitude: 10.00, Longitude: 139.50) to (Latitude: 22.70, Longitude: 165.60).

Table of predicted overpasses for the next 14.0 days since TLE Epoch: 2/26/2017
Interval Starting Time Starting Location Ending Time Ending Location
1 02/26/2017 15:42:56 ( 22.67, 149.17) 02/26/2017 15:46:31 ( 10.05, 146.16)
2 02/27/2017 02:52:00 ( 10.01, 156.69) 02/27/2017 02:55:36 ( 22.69, 153.68)
3 02/27/2017 15:23:53 ( 22.67, 153.92) 02/27/2017 15:27:28 ( 10.05, 150.92)
4 02/28/2017 02:32:58 ( 10.02, 161.45) 02/28/2017 02:36:34 ( 22.70, 158.44)
5 02/28/2017 15:04:51 ( 22.66, 158.68) 02/28/2017 15:08:26 ( 10.04, 155.68)
6 03/01/2017 02:14:41 ( 12.73, 165.59) 03/01/2017 02:17:30 ( 22.64, 163.21)
7 03/01/2017 03:55:25 ( 10.03, 140.84) 03/01/2017 03:57:03 ( 15.79, 139.50)
8 03/01/2017 14:45:48 ( 22.66, 163.44) 03/01/2017 14:49:23 ( 10.04, 160.44)
9 03/02/2017 03:36:23 ( 10.04, 145.59) 03/02/2017 03:39:58 ( 22.66, 142.59)
10 03/02/2017 14:29:52 ( 11.74, 165.59) 03/02/2017 14:30:21 ( 10.03, 165.20)
11 03/02/2017 16:08:16 ( 22.64, 142.82) 03/02/2017 16:11:51 ( 10.02, 139.82)
12 03/03/2017 03:17:20 ( 10.04, 150.35) 03/03/2017 03:20:55 ( 22.66, 147.35)
13 03/03/2017 15:49:12 ( 22.70, 147.60) 03/03/2017 15:52:48 ( 10.02, 144.58)
14 03/04/2017 02:58:18 ( 10.05, 155.11) 03/04/2017 03:01:53 ( 22.67, 152.11)
15 03/04/2017 15:30:10 ( 22.69, 152.36) 03/04/2017 15:33:46 ( 10.01, 149.34)
16 03/05/2017 02:39:15 ( 10.05, 159.87) 03/05/2017 02:42:50 ( 22.68, 156.87)
17 03/05/2017 15:11:07 ( 22.69, 157.12) 03/05/2017 15:14:43 ( 10.01, 154.10)
18 03/06/2017 02:20:12 ( 10.00, 164.64) 03/06/2017 02:23:48 ( 22.68, 161.63)
19 03/06/2017 14:52:05 ( 22.68, 161.87) 03/06/2017 14:55:40 ( 10.06, 158.87)
20 03/07/2017 03:42:40 ( 10.02, 144.03) 03/07/2017 03:46:16 ( 22.70, 141.01)
21 03/07/2017 14:34:14 ( 18.45, 165.60) 03/07/2017 14:36:37 ( 10.05, 163.63)
22 03/07/2017 16:14:32 ( 22.66, 141.26) 03/07/2017 16:16:35 ( 15.45, 139.51)
23
